This demonstration page uses our WeatherBlox Daily Observations layout. Learn more.

Left ArrowRight Arrow

Hourly Observations for November 18, 2018

Temp ( °F °C ) Dew Point ( °F °C ) Humidity (%) Winds ( mph kmh ) Pressure ( in mb ) Visibility ( mi km ) Precip ( " mm )
12:52 am 00:52 Mostly Cloudy 20 -6.7 12 -11.1 71 71 N 8 13 30.48 1032 10 16 0.00 0.00
1:52 am 01:52 Mostly Clear 18 -7.8 12 -11.1 77 77 N 9 15 30.46 1032 10 16 0.00 0.00
2:52 am 02:52 Mostly Clear 16 -8.9 11 -11.7 80 80 N 8 13 30.47 1032 10 16 0.00 0.00
3:52 am 03:52 Clear 15 -9.4 9 -12.8 77 77 N 7 11 30.46 1032 10 16 0.00 0.00
4:52 am 04:52 Clear 13 -10.6 8 -13.3 81 81 N 6 9 30.45 1031 10 16 0.00 0.00
5:52 am 05:52 Clear 12 -11.1 7 -13.9 80 80 N 5 7 30.45 1031 10 16 0.00 0.00
6:52 am 06:52 Mostly Clear 12 -11.1 6 -14.4 77 77 N 6 9 30.45 1031 10 16 0.00 0.00
7:52 am 07:52 Mostly Sunny 14 -10 9 -12.8 80 80 Calm 30.45 1031 10 16 0.00 0.00
8:52 am 08:52 Mostly Sunny 17 -8.3 10 -12.2 74 74 SE 3 6 30.43 1031 10 16 0.00 0.00
9:52 am 09:52 Sunny 20 -6.7 9 -12.8 62 62 Calm 30.42 1030 10 16 0.00 0.00
10:52 am 10:52 Sunny 24 -4.4 9 -12.8 52 52 SSW 5 7 30.39 1029 10 16 0.00 0.00
11:52 am 11:52 Sunny 27 -2.8 9 -12.8 46 46 S 9 15 30.35 1028 10 16 0.00 0.00
12:52 pm 12:52 Sunny 29 -1.7 10 -12.2 45 45 S 10 17 30.31 1026 10 16 0.00 0.00
1:52 pm 13:52 Sunny 30 -1.1 9 -12.8 41 41 SSW 9 15 30.27 1025 10 16 0.00 0.00
2:52 pm 14:52 Sunny 30 -1.1 10 -12.2 43 43 SSW 9 15 30.24 1024 10 16 0.00 0.00
3:52 pm 15:52 Sunny 30 -1.1 13 -10.6 49 49 SSW 12 19 30.22 1023 10 16 0.00 0.00
4:52 pm 16:52 Sunny 28 -2.2 13 -10.6 53 53 S 13 20 30.21 1023 10 16 0.00 0.00
5:52 pm 17:52 Clear 25 -3.9 13 -10.6 60 60 S 10 17 30.21 1023 10 16 0.00 0.00
6:52 pm 18:52 Clear 24 -4.4 12 -11.1 60 60 S 12 19 30.20 1023 10 16 0.00 0.00
7:52 pm 19:52 Mostly Clear 24 -4.4 12 -11.1 60 60 S 8 13 30.19 1022 10 16 0.00 0.00
8:52 pm 20:52 Partly Cloudy 23 -5 13 -10.6 65 65 SSE 10 17 30.17 1022 10 16 0.00 0.00
9:52 pm 21:52 Partly Cloudy 22 -5.6 13 -10.6 68 68 SSE 12 19 30.15 1021 10 16 0.00 0.00
10:52 pm 22:52 Mostly Clear 21 -6.1 14 -10 74 74 SSE 10 17 30.13 1020 10 16 0.00 0.00
11:52 pm 23:52 Partly Cloudy 22 -5.6 14 -10 71 71 SSE 9 15 30.11 1020 10 16 0.00 0.00

Powered by AerisWeather